owner,sensor,date,latitude,longitude,vertical_datum,direction_of_sea_water_velocity,sea_water_speed,upward_sea_water_velocity,qcFlag 
COMPS,ioos:station:USF.COMPS:C12:1,2012-06-13T20:00:00Z,27.4980,-83.7220,4.0,287.72762945438,12.808200498118,-99999.0,'1111122,1111122,1199999999' 
COMPS,ioos:station:USF.COMPS:C12:1,2012-06-13T23:00:00Z,27.4980,-83.7220,4.0,1.0139787227853,11.301769772916,-99999.0,'1111122,1111122,1199999999' 
COMPS,ioos:station:USF.COMPS:C12:1,2012-06-14T06:00:00Z,27.4980,-83.7220,4.0,121.10093690725,21.488834309939,-99999.0,'1111122,1111122,1199999999' 
COMPS,ioos:station:USF.COMPS:C12:1,2012-06-14T08:00:00Z,27.4980,-83.7220,4.0,158.19859051365,18.309560344257,-99999.0,'1111122,1111122,1199999999' 
COMPS,ioos:station:USF.COMPS:C12:1,2012-06-14T11:00:00Z,27.4980,-83.7220,4.0,172.62146415733,14.016062214474,-99999.0,'1111122,1111122,1199999999' 
COMPS,ioos:station:USF.COMPS:C12:1,2012-06-14T14:00:00Z,27.4980,-83.7220,4.0,184.00950154144,21.452505681155,-99999.0,'1111122,1111122,1199999999' 
COMPS,ioos:station:USF.COMPS:C12:1,2012-06-15T19:00:00Z,27.4980,-83.7220,4.0,237.38075692881,17.808986495587,-99999.0,'1111122,1111122,1199999999' 
COMPS,ioos:station:USF.COMPS:C12:1,2012-06-18T18:00:00Z,27.4980,-83.7220,4.0,312.27368900609,13.379461872587,-99999.0,'1111122,1111122,1199999999' 
COMPS,ioos:station:USF.COMPS:C12:1,2012-06-18T19:00:00Z,27.4980,-83.7220,4.0,297.29957221133,10.465658125507,-99999.0,'1111122,1111122,1199999999' 
COMPS,ioos:station:USF.COMPS:C12:1,2012-06-18T20:00:00Z,27.4980,-83.7220,4.0,306.36658017264,13.660527076215,-99999.0,'1111122,1111122,1199999999' 
COMPS,ioos:station:USF.COMPS:C12:1,2012-06-18T21:00:00Z,27.4980,-83.7220,4.0,321.98561083442,18.023595645708,-99999.0,'1111122,1111122,1199999999' 
COMPS,ioos:station:USF.COMPS:C12:1,2012-06-18T22:00:00Z,27.4980,-83.7220,4.0,351.16658534878,14.97765001594,-99999.0,'1111122,1111122,1199999999' 
COMPS,ioos:station:USF.COMPS:C12:1,2012-06-18T23:00:00Z,27.4980,-83.7220,4.0,8.3151257567919,13.138112497615,-99999.0,'1111122,1111122,1199999999' 
COMPS,ioos:station:USF.COMPS:C12:1,2012-06-19T00:00:00Z,27.4980,-83.7220,4.0,0.0,12.3,-99999.0,'1111122,1114422,1199999999' 
COMPS,ioos:station:USF.COMPS:C12:1,2012-06-19T01:00:00Z,27.4980,-83.7220,4.0,76.759480084813,6.9856996786292,-99999.0,'1111122,1111122,1199999999' 
COMPS,ioos:station:USF.COMPS:C12:1,2012-06-19T02:00:00Z,27.4980,-83.7220,4.0,36.869897645844,6.0,-99999.0,'1111122,1111122,1199999999' 
COMPS,ioos:station:USF.COMPS:C12:1,2012-06-19T03:00:00Z,27.4980,-83.7220,4.0,293.49856567595,2.5079872407969,-99999.0,'1111122,1111122,1199999999' 
COMPS,ioos:station:USF.COMPS:C12:1,2012-06-19T04:00:00Z,27.4980,-83.7220,4.0,258.11134196037,3.8832975677895,-99999.0,'1111122,1111122,1199999999' 
COMPS,ioos:station:USF.COMPS:C12:1,2012-06-19T06:00:00Z,27.4980,-83.7220,4.0,286.42930145153,8.1320354155648,-99999.0,'1111122,1111122,1199999999' 
COMPS,ioos:station:USF.COMPS:C12:1,2012-06-19T07:00:00Z,27.4980,-83.7220,4.0,284.78272604262,14.892951352905,-99999.0,'1111122,1111122,1199999999' 
COMPS,ioos:station:USF.COMPS:C12:1,2012-06-19T08:00:00Z,27.4980,-83.7220,4.0,287.51090347015,19.608671551128,-99999.0,'1111122,1111122,1199999999' 
COMPS,ioos:station:USF.COMPS:C12:1,2012-06-19T09:00:00Z,27.4980,-83.7220,4.0,329.03624346793,16.909760495051,-99999.0,'1111122,1111122,1199999999' 
COMPS,ioos:station:USF.COMPS:C12:1,2012-06-19T10:00:00Z,27.4980,-83.7220,4.0,326.40447987915,16.80743882928,-99999.0,'1111122,1111122,1199999999' 
COMPS,ioos:station:USF.COMPS:C12:1,2012-06-19T11:00:00Z,27.4980,-83.7220,4.0,331.92751306415,11.9,-99999.0,'1111122,1111122,1199999999' 
COMPS,ioos:station:USF.COMPS:C12:1,2012-06-19T12:00:00Z,27.4980,-83.7220,4.0,358.28506980447,16.707483353276,-99999.0,'1111122,1111122,1199999999' 
COMPS,ioos:station:USF.COMPS:C12:1,2012-06-19T13:00:00Z,27.4980,-83.7220,4.0,25.101608713823,12.257650672131,-99999.0,'1111122,1111122,1199999999' 
COMPS,ioos:station:USF.COMPS:C12:1,2012-06-19T14:00:00Z,27.4980,-83.7220,4.0,43.71747291729,18.955210365491,-99999.0,'1111122,1111122,1199999999' 
COMPS,ioos:station:USF.COMPS:C12:1,2012-06-19T15:00:00Z,27.4980,-83.7220,4.0,1.6683374482933,10.304368005851,-99999.0,'1111122,1111122,1199999999' 
COMPS,ioos:station:USF.COMPS:C12:1,2012-06-19T16:00:00Z,27.4980,-83.7220,4.0,346.97080519206,12.419742348374,-99999.0,'1111122,1111122,1199999999' 
COMPS,ioos:station:USF.COMPS:C12:1,2012-06-19T17:00:00Z,27.4980,-83.7220,4.0,315.0,9.1923881554251,-99999.0,'1111122,1111122,1199999999' 
COMPS,ioos:station:USF.COMPS:C12:1,2012-06-19T18:00:00Z,27.4980,-83.7220,4.0,346.25095101658,9.6772930099279,-99999.0,'1111122,1111122,1199999999' 
COMPS,ioos:station:USF.COMPS:C12:1,2012-06-19T19:00:00Z,27.4980,-83.7220,4.0,306.43085812016,10.440306508911,-99999.0,'1111122,1111122,1199999999' 
COMPS,ioos:station:USF.COMPS:C12:1,2012-06-19T20:00:00Z,27.4980,-83.7220,4.0,292.68055960702,14.523085071706,-99999.0,'1111122,1111122,1199999999' 
COMPS,ioos:station:USF.COMPS:C12:1,2012-06-19T21:00:00Z,27.4980,-83.7220,4.0,284.63572899984,16.226521500309,-99999.0,'1111122,1111122,1199999999' 
COMPS,ioos:station:USF.COMPS:C12:1,2012-06-19T22:00:00Z,27.4980,-83.7220,4.0,325.92280471987,12.314625451064,-99999.0,'1111122,1111122,1199999999' 
COMPS,ioos:station:USF.COMPS:C12:1,2012-06-19T23:00:00Z,27.4980,-83.7220,4.0,344.52867183448,11.621101496846,-99999.0,'1111122,1111122,1199999999' 
COMPS,ioos:station:USF.COMPS:C12:1,2012-06-20T00:00:00Z,27.4980,-83.7220,4.0,12.707113501317,10.456098698846,-99999.0,'1111122,1111122,1199999999' 
COMPS,ioos:station:USF.COMPS:C12:1,2012-06-20T01:00:00Z,27.4980,-83.7220,4.0,38.354721789726,14.664924138911,-99999.0,'1111122,1111122,1199999999' 
COMPS,ioos:station:USF.COMPS:C12:1,2012-06-20T02:00:00Z,27.4980,-83.7220,4.0,31.607502246249,9.1586025134842,-99999.0,'1111122,1111122,1199999999' 
COMPS,ioos:station:USF.COMPS:C12:1,2012-06-20T03:00:00Z,27.4980,-83.7220,4.0,16.189206257027,6.4560049566276,-99999.0,'1111122,1111122,1199999999' 
COMPS,ioos:station:USF.COMPS:C12:1,2012-06-20T04:00:00Z,27.4980,-83.7220,4.0,302.22126681159,14.066271716414,-99999.0,'1111122,1111122,1199999999' 
COMPS,ioos:station:USF.COMPS:C12:1,2012-06-20T05:00:00Z,27.4980,-83.7220,4.0,266.18592516571,13.529966740536,-99999.0,'1111122,1111122,1199999999' 
COMPS,ioos:station:USF.COMPS:C12:1,2012-06-20T06:00:00Z,27.4980,-83.7220,4.0,267.43622978854,13.413426109686,-99999.0,'1111122,1111122,1199999999' 
COMPS,ioos:station:USF.COMPS:C12:1,2012-06-20T07:00:00Z,27.4980,-83.7220,4.0,290.17685962711,17.685304634074,-99999.0,'1111122,1111122,1199999999' 
COMPS,ioos:station:USF.COMPS:C12:1,2012-06-20T08:00:00Z,27.4980,-83.7220,4.0,309.58813084768,13.49518432627,-99999.0,'1111122,1111122,1199999999' 
COMPS,ioos:station:USF.COMPS:C12:1,2012-06-20T09:00:00Z,27.4980,-83.7220,4.0,278.60138485871,12.035364556174,-99999.0,'1111122,1111122,1199999999' 
COMPS,ioos:station:USF.COMPS:C12:1,2012-06-20T10:00:00Z,27.4980,-83.7220,4.0,300.46554491946,11.83384975399,-99999.0,'1111122,1111122,1199999999' 
COMPS,ioos:station:USF.COMPS:C12:1,2012-06-20T11:00:00Z,27.4980,-83.7220,4.0,315.0,10.182337649086,-99999.0,'1111122,1111122,1199999999' 
COMPS,ioos:station:USF.COMPS:C12:1,2012-06-20T12:00:00Z,27.4980,-83.7220,4.0,309.71875937155,8.4504437753292,-99999.0,'1111122,1111122,1199999999' 
COMPS,ioos:station:USF.COMPS:C12:1,2012-06-20T13:00:00Z,27.4980,-83.7220,4.0,4.5139884580013,11.435471131528,-99999.0,'1111122,1111122,1199999999' 
COMPS,ioos:station:USF.COMPS:C12:1,2012-06-20T14:00:00Z,27.4980,-83.7220,4.0,333.7117378751,9.2574294488265,-99999.0,'1111122,1111122,1199999999' 
COMPS,ioos:station:USF.COMPS:C12:1,2012-06-20T15:00:00Z,27.4980,-83.7220,4.0,347.82854179141,15.651836952895,-99999.0,'1111122,1111122,1199999999' 
COMPS,ioos:station:USF.COMPS:C12:1,2012-06-20T16:00:00Z,27.4980,-83.7220,4.0,3.4336303624505,10.017983829095,-99999.0,'1111122,1111122,1199999999' 
COMPS,ioos:station:USF.COMPS:C12:1,2012-06-20T17:00:00Z,27.4980,-83.7220,4.0,293.42869280875,6.5391130897087,-99999.0,'1111122,1111122,1199999999' 
COMPS,ioos:station:USF.COMPS:C12:1,2012-06-20T18:00:00Z,27.4980,-83.7220,4.0,305.28120779717,12.984991336154,-99999.0,'1111122,1111122,1199999999' 
COMPS,ioos:station:USF.COMPS:C12:1,2012-06-20T19:00:00Z,27.4980,-83.7220,4.0,259.50852298767,16.475436261295,-99999.0,'1111122,1111122,1199999999' 
COMPS,ioos:station:USF.COMPS:C12:1,2012-06-20T20:00:00Z,27.4980,-83.7220,4.0,289.60069042922,21.760974242896,-99999.0,'1111122,1111122,1199999999' 
COMPS,ioos:station:USF.COMPS:C12:1,2012-06-20T21:00:00Z,27.4980,-83.7220,4.0,288.07232214896,19.985995096567,-99999.0,'1111122,1111122,1199999999' 
COMPS,ioos:station:USF.COMPS:C12:1,2012-06-20T22:00:00Z,27.4980,-83.7220,4.0,298.82039746054,26.137520922995,-99999.0,'1111122,1111122,1199999999' 
COMPS,ioos:station:USF.COMPS:C12:1,2012-06-20T23:00:00Z,27.4980,-83.7220,4.0,304.07719528013,16.419500601419,-99999.0,'1111122,1111122,1199999999' 
COMPS,ioos:station:USF.COMPS:C12:1,2012-06-21T00:00:00Z,27.4980,-83.7220,4.0,305.31121343963,17.646529403823,-99999.0,'1111122,1111122,1199999999' 
COMPS,ioos:station:USF.COMPS:C12:1,2012-06-21T01:00:00Z,27.4980,-83.7220,4.0,344.36649965469,25.23350946658,-99999.0,'1111122,1111122,1199999999' 
COMPS,ioos:station:USF.COMPS:C12:1,2012-06-21T02:00:00Z,27.4980,-83.7220,4.0,3.0940580589171,25.937810239108,-99999.0,'1111122,1111122,1199999999' 
COMPS,ioos:station:USF.COMPS:C12:1,2012-06-21T03:00:00Z,27.4980,-83.7220,4.0,0.24381035610408,23.500212764994,-99999.0,'1111122,1111122,1199999999' 
COMPS,ioos:station:USF.COMPS:C12:1,2012-06-21T04:00:00Z,27.4980,-83.7220,4.0,6.7623896749393,25.477244748991,-99999.0,'1111122,1111122,1199999999' 
COMPS,ioos:station:USF.COMPS:C12:1,2012-06-21T05:00:00Z,27.4980,-83.7220,4.0,331.33604288972,17.095028517086,-99999.0,'1111122,1111122,1199999999' 
COMPS,ioos:station:USF.COMPS:C12:1,2012-06-21T06:00:00Z,27.4980,-83.7220,4.0,304.43198579099,19.277447963877,-99999.0,'1111122,1111122,1199999999' 
COMPS,ioos:station:USF.COMPS:C12:1,2012-06-21T07:00:00Z,27.4980,-83.7220,4.0,323.47981792685,19.660366222428,-99999.0,'1111122,1111122,1199999999' 
COMPS,ioos:station:USF.COMPS:C12:1,2012-06-21T08:00:00Z,27.4980,-83.7220,4.0,295.36216694893,17.042593699317,-99999.0,'1111122,1111122,1199999999' 
COMPS,ioos:station:USF.COMPS:C12:1,2012-06-21T09:00:00Z,27.4980,-83.7220,4.0,322.43140797117,16.401219466857,-99999.0,'1111122,1111122,1199999999' 
COMPS,ioos:station:USF.COMPS:C12:1,2012-06-21T10:00:00Z,27.4980,-83.7220,4.0,331.2940474566,9.5770559150503,-99999.0,'1111122,1111122,1199999999' 
COMPS,ioos:station:USF.COMPS:C12:1,2012-06-21T11:00:00Z,27.4980,-83.7220,4.0,315.0,13.293607486307,-99999.0,'1111122,1111122,1199999999' 
COMPS,ioos:station:USF.COMPS:C12:1,2012-06-21T12:00:00Z,27.4980,-83.7220,4.0,335.29756977223,16.51090548698,-99999.0,'1111122,1111122,1199999999' 
COMPS,ioos:station:USF.COMPS:C12:1,2012-06-21T13:00:00Z,27.4980,-83.7220,4.0,357.28801653256,19.021303845951,-99999.0,'1111122,1111122,1199999999' 
COMPS,ioos:station:USF.COMPS:C12:1,2012-06-21T14:00:00Z,27.4980,-83.7220,4.0,326.44302347625,23.879907872519,-99999.0,'1111122,1111122,1199999999' 
COMPS,ioos:station:USF.COMPS:C12:1,2012-06-21T15:00:00Z,27.4980,-83.7220,4.0,332.30673139111,20.441624201614,-99999.0,'1111122,1111122,1199999999' 
COMPS,ioos:station:USF.COMPS:C12:1,2012-06-21T17:00:00Z,27.4980,-83.7220,4.0,310.64577893693,13.970325694128,-99999.0,'1111122,1111122,1199999999' 
COMPS,ioos:station:USF.COMPS:C12:1,2012-06-21T18:00:00Z,27.4980,-83.7220,4.0,323.95479412885,23.622446951999,-99999.0,'1111122,1111122,1199999999' 
COMPS,ioos:station:USF.COMPS:C12:1,2012-06-21T19:00:00Z,27.4980,-83.7220,4.0,312.70938995736,26.537709019431,-99999.0,'1111122,1111122,1199999999' 
COMPS,ioos:station:USF.COMPS:C12:1,2012-06-21T20:00:00Z,27.4980,-83.7220,4.0,309.24173983563,16.914490828872,-99999.0,'1111122,1111122,1199999999' 
COMPS,ioos:station:USF.COMPS:C12:1,2012-06-21T21:00:00Z,27.4980,-83.7220,4.0,304.43000877917,15.033628969746,-99999.0,'1111122,1111122,1199999999' 
COMPS,ioos:station:USF.COMPS:C12:1,2012-06-21T22:00:00Z,27.4980,-83.7220,4.0,318.04184215662,14.657762448614,-99999.0,'1111122,1111122,1199999999' 
COMPS,ioos:station:USF.COMPS:C12:1,2012-06-21T23:00:00Z,27.4980,-83.7220,4.0,325.06068979532,17.810109488715,-99999.0,'1111122,1111122,1199999999' 
COMPS,ioos:station:USF.COMPS:C12:1,2012-06-22T00:00:00Z,27.4980,-83.7220,4.0,318.81407483429,18.071247881649,-99999.0,'1111122,1111122,1199999999' 
COMPS,ioos:station:USF.COMPS:C12:1,2012-06-22T01:00:00Z,27.4980,-83.7220,4.0,325.02790876742,23.552919139674,-99999.0,'1111122,1111122,1199999999' 
COMPS,ioos:station:USF.COMPS:C12:1,2012-06-22T02:00:00Z,27.4980,-83.7220,4.0,356.423665625,20.840585404446,-99999.0,'1111122,1111122,1199999999' 
COMPS,ioos:station:USF.COMPS:C12:1,2012-06-22T03:00:00Z,27.4980,-83.7220,4.0,5.7582601643668,23.920702330826,-99999.0,'1111122,1111122,1199999999' 
COMPS,ioos:station:USF.COMPS:C12:1,2012-06-22T04:00:00Z,27.4980,-83.7220,4.0,18.879093256034,20.397303743387,-99999.0,'1111122,1111122,1199999999' 
COMPS,ioos:station:USF.COMPS:C12:1,2012-06-22T05:00:00Z,27.4980,-83.7220,4.0,11.938150494505,17.886866690396,-99999.0,'1111122,1111122,1199999999' 
COMPS,ioos:station:USF.COMPS:C12:1,2012-06-22T06:00:00Z,27.4980,-83.7220,4.0,11.807063421599,18.082588310306,-99999.0,'1111122,1111122,1199999999' 
COMPS,ioos:station:USF.COMPS:C12:1,2012-06-22T07:00:00Z,27.4980,-83.7220,4.0,356.35551048723,15.731814898479,-99999.0,'1111122,1111122,1199999999' 
COMPS,ioos:station:USF.COMPS:C12:1,2012-06-22T08:00:00Z,27.4980,-83.7220,4.0,0.77422016492806,7.4006756448314,-99999.0,'1111122,1111122,1199999999' 
COMPS,ioos:station:USF.COMPS:C12:1,2012-06-22T09:00:00Z,27.4980,-83.7220,4.0,321.70983680776,7.2622310621461,-99999.0,'1111122,1111122,1199999999' 
COMPS,ioos:station:USF.COMPS:C12:1,2012-06-22T10:00:00Z,27.4980,-83.7220,4.0,259.07719528013,11.61034021896,-99999.0,'1111122,1111122,1199999999' 
COMPS,ioos:station:USF.COMPS:C12:1,2012-06-22T11:00:00Z,27.4980,-83.7220,4.0,253.73979529169,7.5,-99999.0,'1111122,1111122,1199999999' 
COMPS,ioos:station:USF.COMPS:C12:1,2012-06-22T12:00:00Z,27.4980,-83.7220,4.0,300.16500780574,13.532553343697,-99999.0,'1111122,1111122,1199999999' 
COMPS,ioos:station:USF.COMPS:C12:1,2012-06-22T13:00:00Z,27.4980,-83.7220,4.0,310.38364790645,11.421471008587,-99999.0,'1111122,1111122,1199999999' 
COMPS,ioos:station:USF.COMPS:C12:1,2012-06-22T14:00:00Z,27.4980,-83.7220,4.0,320.28544674938,16.119863522995,-99999.0,'1111122,1111122,1199999999' 
COMPS,ioos:station:USF.COMPS:C12:1,2012-06-22T15:00:00Z,27.4980,-83.7220,4.0,334.50244850666,14.402777509911,-99999.0,'1111122,1111122,1199999999' 
COMPS,ioos:station:USF.COMPS:C12:1,2012-06-22T16:00:00Z,27.4980,-83.7220,4.0,345.17352002964,10.551303237041,-99999.0,'1111122,1111122,1199999999' 
COMPS,ioos:station:USF.COMPS:C12:1,2012-06-22T17:00:00Z,27.4980,-83.7220,4.0,323.89585696966,16.461470165207,-99999.0,'1111122,1111122,1199999999' 
COMPS,ioos:station:USF.COMPS:C12:1,2012-06-22T18:00:00Z,27.4980,-83.7220,4.0,314.30972280213,17.608236708995,-99999.0,'1111122,1111122,1199999999' 
COMPS,ioos:station:USF.COMPS:C12:1,2012-06-22T19:00:00Z,27.4980,-83.7220,4.0,320.07473037816,18.386136081298,-99999.0,'1111122,1111122,1199999999' 
COMPS,ioos:station:USF.COMPS:C12:1,2012-06-22T20:00:00Z,27.4980,-83.7220,4.0,299.604450746,15.181897114656,-99999.0,'1111122,1111122,1199999999' 
COMPS,ioos:station:USF.COMPS:C12:1,2012-06-22T21:00:00Z,27.4980,-83.7220,4.0,309.12603848381,17.273389939442,-99999.0,'1111122,1111122,1199999999' 
COMPS,ioos:station:USF.COMPS:C12:1,2012-06-22T22:00:00Z,27.4980,-83.7220,4.0,312.33699923393,12.17538500418,-99999.0,'1111122,1111122,1199999999' 
COMPS,ioos:station:USF.COMPS:C12:1,2012-06-22T23:00:00Z,27.4980,-83.7220,4.0,323.04609100745,13.640014662749,-99999.0,'1111122,1111122,1199999999' 
COMPS,ioos:station:USF.COMPS:C12:1,2012-06-23T00:00:00Z,27.4980,-83.7220,4.0,340.44800482676,11.354734695271,-99999.0,'1111122,1111122,1199999999' 
COMPS,ioos:station:USF.COMPS:C12:1,2012-06-23T01:00:00Z,27.4980,-83.7220,4.0,14.60444744679,14.674126890551,-99999.0,'1111122,1111122,1199999999' 
COMPS,ioos:station:USF.COMPS:C12:1,2012-06-23T02:00:00Z,27.4980,-83.7220,4.0,23.838740183172,18.804254837669,-99999.0,'1111122,1111122,1199999999' 
COMPS,ioos:station:USF.COMPS:C12:1,2012-06-23T03:00:00Z,27.4980,-83.7220,4.0,38.65980825409,18.569060288555,-99999.0,'1111122,1111122,1199999999' 
COMPS,ioos:station:USF.COMPS:C12:1,2012-06-23T04:00:00Z,27.4980,-83.7220,4.0,27.847578259788,17.982491484775,-99999.0,'1111122,1111122,1199999999' 
COMPS,ioos:station:USF.COMPS:C12:1,2012-06-23T05:00:00Z,27.4980,-83.7220,4.0,28.015267468011,17.670597047072,-99999.0,'1111122,1111122,1199999999' 
COMPS,ioos:station:USF.COMPS:C12:1,2012-06-23T06:00:00Z,27.4980,-83.7220,4.0,32.619243071193,14.840822079656,-99999.0,'1111122,1111122,1199999999' 
COMPS,ioos:station:USF.COMPS:C12:1,2012-06-23T07:00:00Z,27.4980,-83.7220,4.0,339.82054133549,12.465151423067,-99999.0,'1111122,1111122,1199999999' 
COMPS,ioos:station:USF.COMPS:C12:1,2012-06-23T08:00:00Z,27.4980,-83.7220,4.0,319.92061603636,10.716809226631,-99999.0,'1111122,1111122,1199999999' 
COMPS,ioos:station:USF.COMPS:C12:1,2012-06-23T09:00:00Z,27.4980,-83.7220,4.0,281.04094018032,12.531959144523,-99999.0,'1111122,1111122,1199999999' 
COMPS,ioos:station:USF.COMPS:C12:1,2012-06-23T10:00:00Z,27.4980,-83.7220,4.0,281.61852435279,10.923827168168,-99999.0,'1111122,1111122,1199999999' 
COMPS,ioos:station:USF.COMPS:C12:1,2012-06-23T11:00:00Z,27.4980,-83.7220,4.0,317.23117460803,5.4488530903301,-99999.0,'1111122,1111122,1199999999' 
COMPS,ioos:station:USF.COMPS:C12:1,2012-06-23T12:00:00Z,27.4980,-83.7220,4.0,299.6966525377,14.735331689514,-99999.0,'1111122,1111122,1199999999' 
COMPS,ioos:station:USF.COMPS:C12:1,2012-06-23T13:00:00Z,27.4980,-83.7220,4.0,310.38364790645,11.421471008587,-99999.0,'1111122,1111122,1199999999' 
COMPS,ioos:station:USF.COMPS:C12:1,2012-06-23T14:00:00Z,27.4980,-83.7220,4.0,303.575932658,13.923002549738,-99999.0,'1111122,1111122,1199999999' 
COMPS,ioos:station:USF.COMPS:C12:1,2012-06-23T15:00:00Z,27.4980,-83.7220,4.0,299.74488129694,13.705838172108,-99999.0,'1111122,1111122,1199999999' 
COMPS,ioos:station:USF.COMPS:C12:1,2012-06-23T16:00:00Z,27.4980,-83.7220,4.0,337.03077487246,16.400304875215,-99999.0,'1111122,1111122,1199999999' 
COMPS,ioos:station:USF.COMPS:C12:1,2012-06-23T17:00:00Z,27.4980,-83.7220,4.0,327.285916081,16.282813024782,-99999.0,'1111122,1111122,1199999999' 
COMPS,ioos:station:USF.COMPS:C12:1,2012-06-23T18:00:00Z,27.4980,-83.7220,4.0,323.4089117326,24.660291969074,-99999.0,'1111122,1111122,1199999999' 
COMPS,ioos:station:USF.COMPS:C12:1,2012-06-23T19:00:00Z,27.4980,-83.7220,4.0,334.07959986962,31.798899352022,-99999.0,'1111122,1111122,1199999999' 
COMPS,ioos:station:USF.COMPS:C12:1,2012-06-23T20:00:00Z,27.4980,-83.7220,4.0,334.79887635452,16.90946480525,-99999.0,'1111122,1111122,1199999999' 
COMPS,ioos:station:USF.COMPS:C12:1,2012-06-23T21:00:00Z,27.4980,-83.7220,4.0,323.16723506413,30.860006480881,-99999.0,'1111122,1111122,1199999999' 
COMPS,ioos:station:USF.COMPS:C12:1,2012-06-23T22:00:00Z,27.4980,-83.7220,4.0,313.41225061355,33.176045575083,-99999.0,'1111122,1111122,1199999999' 
COMPS,ioos:station:USF.COMPS:C12:1,2012-06-23T23:00:00Z,27.4980,-83.7220,4.0,308.45865362293,26.690260395882,-99999.0,'1111122,1111122,1199999999' 
COMPS,ioos:station:USF.COMPS:C12:1,2012-06-24T00:00:00Z,27.4980,-83.7220,4.0,310.76360520094,22.973027662892,-99999.0,'1111122,1111122,1199999999' 
COMPS,ioos:station:USF.COMPS:C12:1,2012-06-24T01:00:00Z,27.4980,-83.7220,4.0,332.67610869865,27.014070407845,-99999.0,'1111122,1111122,1199999999' 
COMPS,ioos:station:USF.COMPS:C12:1,2012-06-24T02:00:00Z,27.4980,-83.7220,4.0,325.14286367876,31.319323108905,-99999.0,'1111122,1111122,1199999999' 
COMPS,ioos:station:USF.COMPS:C12:1,2012-06-24T03:00:00Z,27.4980,-83.7220,4.0,335.45415597397,27.923466833472,-99999.0,'1111122,1111122,1199999999' 
COMPS,ioos:station:USF.COMPS:C12:1,2012-06-24T04:00:00Z,27.4980,-83.7220,4.0,356.43536102788,30.559123024066,-99999.0,'1111122,1111122,1199999999' 
COMPS,ioos:station:USF.COMPS:C12:1,2012-06-24T05:00:00Z,27.4980,-83.7220,4.0,343.60008563394,31.168092659,-99999.0,'1111122,1111122,1199999999' 
COMPS,ioos:station:USF.COMPS:C12:1,2012-06-24T06:00:00Z,27.4980,-83.7220,4.0,338.90766049417,30.010664771044,-99999.0,'1111122,1111122,1199999999' 
COMPS,ioos:station:USF.COMPS:C12:1,2012-06-24T07:00:00Z,27.4980,-83.7220,4.0,336.10890759845,32.592637205357,-99999.0,'1111122,1111122,1199999999' 
COMPS,ioos:station:USF.COMPS:C12:1,2012-06-24T08:00:00Z,27.4980,-83.7220,4.0,327.01900245454,22.411604137143,-99999.0,'1111122,1111122,1199999999' 
COMPS,ioos:station:USF.COMPS:C12:1,2012-06-24T09:00:00Z,27.4980,-83.7220,4.0,342.70890809484,38.01815355853,-99999.0,'1111122,1111122,1199999999' 
COMPS,ioos:station:USF.COMPS:C12:1,2012-06-24T10:00:00Z,27.4980,-83.7220,4.0,342.75854060106,27.32800761124,-99999.0,'1111122,1111122,1199999999' 
COMPS,ioos:station:USF.COMPS:C12:1,2012-06-24T11:00:00Z,27.4980,-83.7220,4.0,346.82744657667,33.789051481212,-99999.0,'1111122,1111122,1199999999' 
COMPS,ioos:station:USF.COMPS:C12:1,2012-06-24T12:00:00Z,27.4980,-83.7220,4.0,13.134022306396,27.725259241349,-99999.0,'1111122,1111122,1199999999' 
COMPS,ioos:station:USF.COMPS:C12:1,2012-06-24T13:00:00Z,27.4980,-83.7220,4.0,344.96547998801,25.057733337235,-99999.0,'1111122,1111122,1199999999' 
COMPS,ioos:station:USF.COMPS:C12:1,2012-06-24T14:00:00Z,27.4980,-83.7220,4.0,359.01788283678,35.005142479356,-99999.0,'1111122,1111122,1199999999' 
 
DISCLAIMER: The Gulf of Mexico Coastal and Ocean Observing (GCOOS) Data Portal aggregates data from the regional data providers for the convenience of all data users. Data published on this website should not be used for navigation or certain other uses as we cannot guarantee data accuracy or availability. The data and delivery services are provided 'as is' without warranty of any kind. Data Source: Gulf of Mexico Coastal Ocean Observing System Data Portal (http://data.gcoos.org/) 
